QPF
0.00 0.00 0.00 0.01 0.01 0.00 0.00 0.00 0.00 0.00 0.00 0.00 0.00 0.00 0.00 0.00 0.00 0.00 0.00 0.00 0.00 0.00 0.00 0.00 0.00 0.00 0.00 0.00 0.00 0.00 0.00 0.00 0.00 0.00 0.00 0.00 0.00 0.00 0.00 0.00 0.00 0.00 0.00 0.00 0.00 0.00 0.00 0.00 0.00
0.00 0.00 0.01 0.01 0.01 0.00 0.00 0.00 0.00 0.00 0.00 0.00 0.00 0.00 0.00 0.00 0.00 0.00 0.00 0.00 0.00 0.00 0.00 0.00 0.00 0.00 0.00 0.00 0.00 0.00 0.00 0.00 0.00 0.00 0.00 0.00 0.00 0.00 0.00 0.00 0.00 0.00 0.00 0.00 0.00 0.00 0.00 0.00 0.00
0.00 0.00 0.01 0.00 0.00 0.00 0.01 0.00 0.00 0.00 0.00 0.00 0.00 0.00 0.00 0.00 0.00 0.00 0.00 0.00 0.00 0.00 0.00 0.00 0.00 0.00 0.00 0.00 0.00 0.00 0.00 0.00 0.00 0.00 0.00 0.00 0.00 0.00 0.00 0.00 0.00 0.00 0.00 0.00 0.00 0.00 0.00 0.00 0.00
0.00 0.00 0.00 0.00 0.00 0.00 0.00 0.00 0.00 0.00 0.00 0.00 0.00 0.00 0.00 0.00 0.00 0.00 0.00 0.00 0.00 0.00 0.00 0.00 0.00 0.00 0.00 0.00 0.00 0.00 0.00 0.00 0.00 0.00 0.00 0.00 0.00 0.00 0.00 0.00 0.00 0.00 0.00 0.00 0.00 0.00 0.00 0.00 0.00
0.00 0.00 0.00 0.00 0.00 0.00 0.00 0.00 0.00 0.00 0.00 0.00 0.00 0.00 0.00 0.00 0.00 0.00 0.00 0.00 0.00 0.00 0.00 0.00 0.00 0.00 0.00 0.00 0.00 0.00 0.00 0.00 0.00 0.00 0.00 0.00 0.00 0.00 0.00 0.01 0.01 0.00 0.00 0.00 0.00 0.00 0.01 0.01 0.00
0.00 0.00 0.00 0.00 0.00 0.00 0.00 0.00 0.00 0.00 0.00 0.00 0.00 0.00 0.00 0.00 0.00 0.00 0.00 0.00 0.00 0.00 0.00 0.00 0.00 0.00 0.00 0.00 0.00 0.00 0.00 0.00 0.00 0.00 0.00 0.00 0.00 0.00 0.00 0.00 0.00 0.00 0.00 0.00 0.00 0.00 0.00 0.00 0.01
0.00 0.00 0.00 0.00 0.00 0.00 0.00 0.00 0.00 0.00 0.00 0.00 0.00 0.00 0.00 0.00 0.00 0.00 0.00 0.00 0.00 0.00 0.00 0.00 0.00 0.00 0.00 0.00 0.00 0.00 0.00 0.00 0.00 0.00 0.00 0.00 0.00 0.00 0.01 0.01 0.00 0.00 0.00 0.00 0.00 0.00 0.00 0.00 0.01
0.00 0.00 0.00 0.00 0.00 0.00 0.00 0.00 0.00 0.00 0.00 0.00 0.00 0.00 0.00 0.00 0.00 0.00 0.00 0.00 0.00 0.00 0.00 0.00 0.00 0.00 0.00 0.00 0.00 0.00 0.00 0.00 0.00 0.00 0.00 0.00 0.00 0.00 0.01 0.01 0.01 0.00 0.00 0.00 0.00 0.00 0.00 0.01 0.02
0.00 0.00 0.00 0.00 0.00 0.00 0.00 0.00 0.00 0.00 0.00 0.00 0.00 0.00 0.00 0.00 0.00 0.00 0.00 0.00 0.00 0.00 0.00 0.00 0.00 0.00 0.00 0.00 0.00 0.00 0.00 0.00 0.00 0.00 0.00 0.00 0.00 0.00 0.01 0.01 0.02 0.01 0.01 0.01 0.01 0.01 0.01 0.03 0.05
0.00 0.00 0.00 0.00 0.00 0.00 0.00 0.00 0.00 0.00 0.00 0.00 0.00 0.00 0.00 0.00 0.00 0.00 0.00 0.00 0.00 0.00 0.00 0.00 0.00 0.00 0.00 0.00 0.00 0.00 0.00 0.00 0.00 0.01 0.02 0.02 0.03 0.02 0.01 0.01 0.02 0.03 0.03 0.03 0.02 0.03 0.06 0.11 0.09
0.00 0.00 0.00 0.00 0.00 0.00 0.00 0.00 0.00 0.00 0.00 0.00 0.00 0.00 0.00 0.00 0.00 0.00 0.00 0.00 0.00 0.00 0.00 0.00 0.00 0.00 0.00 0.00 0.00 0.01 0.01 0.02 0.03 0.03 0.04 0.07 0.08 0.07 0.04 0.05 0.04 0.03 0.03 0.05 0.10 0.10 0.10 0.12 0.11
0.00 0.00 0.00 0.00 0.00 0.00 0.00 0.00 0.00 0.00 0.00 0.00 0.00 0.00 0.00 0.00 0.00 0.00 0.00 0.00 0.00 0.00 0.00 0.00 0.00 0.00 0.00 0.01 0.02 0.03 0.02 0.03 0.04 0.07 0.08 0.12 0.09 0.07 0.08 0.09 0.08 0.07 0.06 0.11 0.10 0.09 0.10 0.15 0.09
0.00 0.00 0.00 0.00 0.00 0.00 0.00 0.00 0.00 0.00 0.00 0.00 0.00 0.00 0.00 0.00 0.00 0.00 0.00 0.00 0.00 0.00 0.01 0.01 0.01 0.01 0.01 0.02 0.03 0.04 0.03 0.03 0.05 0.09 0.09 0.12 0.13 0.12 0.12 0.10 0.10 0.09 0.10 0.20 0.19 0.14 0.11 0.14 0.17
0.00 0.00 0.00 0.00 0.00 0.00 0.00 0.00 0.00 0.00 0.00 0.00 0.00 0.00 0.00 0.00 0.00 0.00 0.00 0.00 0.00 0.01 0.04 0.06 0.06 0.03 0.02 0.03 0.04 0.04 0.05 0.04 0.04 0.06 0.08 0.15 0.22 0.19 0.15 0.16 0.19 0.20 0.30 0.34 0.28 0.24 0.18 0.13 0.15
0.00 0.00 0.00 0.00 0.00 0.00 0.00 0.00 0.00 0.00 0.00 0.00 0.00 0.00 0.00 0.00 0.00 0.00 0.00 0.00 0.01 0.03 0.09 0.15 0.15 0.12 0.09 0.10 0.10 0.08 0.06 0.06 0.07 0.09 0.09 0.23 0.34 0.37 0.40 0.35 0.30 0.35 0.38 0.38 0.44 0.39 0.24 0.14 0.18
0.00 0.00 0.00 0.00 0.00 0.00 0.00 0.00 0.00 0.00 0.00 0.00 0.00 0.00 0.00 0.00 0.00 0.02 0.01 0.00 0.01 0.02 0.09 0.15 0.14 0.14 0.13 0.13 0.13 0.14 0.13 0.09 0.10 0.13 0.16 0.29 0.43 0.50 0.47 0.38 0.41 0.48 0.37 0.30 0.29 0.21 0.14 0.12 0.17
0.00 0.00 0.00 0.00 0.00 0.00 0.00 0.00 0.00 0.00 0.00 0.00 0.01 0.02 0.04 0.03 0.02 0.02 0.01 0.00 0.01 0.02 0.05 0.08 0.09 0.10 0.11 0.12 0.11 0.12 0.13 0.09 0.07 0.10 0.14 0.20 0.24 0.24 0.20 0.17 0.23 0.32 0.28 0.20 0.17 0.17 0.16 0.11 0.15
0.00 0.00 0.00 0.00 0.00 0.00 0.00 0.00 0.01 0.01 0.01 0.01 0.02 0.04 0.06 0.04 0.01 0.00 0.00 0.00 0.00 0.01 0.02 0.04 0.05 0.07 0.07 0.08 0.06 0.06 0.04 0.05 0.07 0.08 0.10 0.10 0.11 0.12 0.09 0.08 0.10 0.14 0.15 0.15 0.13 0.10 0.12 0.09 0.10
0.00 0.00 0.00 0.00 0.00 0.00 0.00 0.01 0.02 0.03 0.03 0.02 0.03 0.02 0.01 0.00 0.00 0.00 0.00 0.00 0.00 0.00 0.02 0.02 0.02 0.04 0.06 0.05 0.03 0.02 0.01 0.02 0.03 0.03 0.02 0.01 0.01 0.01 0.01 0.01 0.01 0.01 0.02 0.03 0.05 0.06 0.07 0.06 0.11
0.00 0.00 0.00 0.00 0.00 0.00 0.00 0.00 0.01 0.02 0.02 0.01 0.01 0.00 0.00 0.00 0.00 0.00 0.00 0.00 0.00 0.00 0.00 0.00 0.01 0.03 0.03 0.02 0.01 0.01 0.01 0.00 0.00 0.00 0.00 0.00 0.00 0.00 0.00 0.00 0.00 0.00 0.00 0.00 0.00 0.01 0.03 0.03 0.05
0.00 0.00 0.00 0.00 0.00 0.00 0.00 0.00 0.00 0.01 0.00 0.00 0.00 0.00 0.00 0.01 0.01 0.00 0.00 0.00 0.00 0.00 0.00 0.00 0.01 0.01 0.01 0.00 0.00 0.00 0.00 0.00 0.00 0.00 0.02 0.02 0.00 0.00 0.00 0.00 0.00 0.00 0.00 0.00 0.00 0.00 0.01 0.02 0.02
0.00 0.00 0.00 0.00 0.00 0.00 0.00 0.00 0.00 0.00 0.00 0.01 0.01 0.00 0.01 0.02 0.03 0.02 0.01 0.00 0.00 0.00 0.00 0.00 0.00 0.00 0.00 0.00 0.00 0.00 0.00 0.00 0.00 0.01 0.02 0.01 0.00 0.00 0.00 0.00 0.00 0.00 0.01 0.01 0.01 0.01 0.02 0.03 0.03
0.00 0.00 0.00 0.00 0.00 0.00 0.00 0.00 0.00 0.00 0.00 0.01 0.02 0.02 0.01 0.04 0.04 0.02 0.00 0.00 0.00 0.00 0.00 0.00 0.00 0.01 0.00 0.00 0.00 0.00 0.00 0.00 0.00 0.00 0.00 0.00 0.00 0.00 0.00 0.00 0.00 0.01 0.01 0.01 0.02 0.02 0.03 0.05 0.05
0.00 0.00 0.00 0.00 0.00 0.00 0.00 0.00 0.00 0.00 0.00 0.00 0.01 0.02 0.02 0.04 0.05 0.02 0.00 0.00 0.00 0.00 0.00 0.00 0.01 0.01 0.01 0.00 0.00 0.00 0.00 0.00 0.00 0.00 0.00 0.00 0.00 0.00 0.00 0.00 0.01 0.01 0.01 0.01 0.01 0.02 0.03 0.04 0.05
0.01 0.01 0.00 0.00 0.00 0.00 0.00 0.00 0.00 0.00 0.00 0.00 0.00 0.03 0.09 0.15 0.16 0.08 0.02 0.00 0.00 0.00 0.00 0.00 0.00 0.01 0.01 0.00 0.00 0.00 0.00 0.00 0.00 0.00 0.00 0.00 0.00 0.00 0.00 0.00 0.00 0.00 0.00 0.01 0.01 0.01 0.02 0.02 0.03
0.00 0.00 0.00 0.00 0.00 0.00 0.00 0.00 0.00 0.00 0.00 0.00 0.01 0.03 0.11 0.16 0.16 0.12 0.05 0.01 0.01 0.00 0.00 0.00 0.00 0.00 0.00 0.00 0.00 0.00 0.01 0.00 0.00 0.00 0.00 0.00 0.00 0.00 0.00 0.00 0.00 0.00 0.00 0.00 0.01 0.01 0.01 0.02 0.03
0.00 0.00 0.00 0.00 0.00 0.00 0.00 0.00 0.00 0.00 0.00 0.01 0.02 0.02 0.04 0.06 0.06 0.06 0.04 0.02 0.01 0.01 0.01 0.01 0.00 0.00 0.00 0.00 0.00 0.01 0.01 0.01 0.00 0.00 0.00 0.00 0.00 0.00 0.00 0.00 0.00 0.00 0.00 0.00 0.01 0.01 0.01 0.02 0.05
0.00 0.00 0.00 0.00 0.00 0.00 0.00 0.00 0.00 0.00 0.00 0.01 0.02 0.03 0.05 0.07 0.06 0.06 0.05 0.04 0.03 0.02 0.01 0.01 0.01 0.00 0.00 0.00 0.00 0.01 0.02 0.02 0.01 0.00 0.00 0.00 0.00 0.00 0.00 0.00 0.00 0.00 0.00 0.00 0.01 0.01 0.02 0.03 0.07
0.00 0.00 0.00 0.00 0.00 0.00 0.00 0.00 0.00 0.00 0.00 0.00 0.00 0.02 0.03 0.04 0.04 0.04 0.03 0.03 0.02 0.01 0.01 0.01 0.01 0.01 0.00 0.00 0.00 0.00 0.02 0.03 0.03 0.03 0.02 0.01 0.00 0.00 0.00 0.00 0.00 0.00 0.00 0.00 0.01 0.02 0.02 0.03 0.04
0.00 0.00 0.00 0.00 0.00 0.00 0.00 0.00 0.00 0.00 0.00 0.00 0.00 0.00 0.00 0.01 0.01 0.01 0.02 0.02 0.02 0.02 0.02 0.02 0.01 0.01 0.00 0.00 0.00 0.00 0.01 0.01 0.03 0.05 0.05 0.04 0.02 0.01 0.00 0.00 0.00 0.00 0.00 0.00 0.01 0.02 0.02 0.02 0.02
MSLP
1009.80 1010.12 1010.47 1010.75 1010.91 1010.89 1010.70 1010.38 1010.02 1009.70 1009.50 1009.44 1009.51 1009.66 1009.83 1009.94 1009.95 1009.87 1009.73 1009.62 1009.62 1009.81 1010.22 1010.83 1011.58 1012.35 1013.06 1013.61 1013.97 1014.13 1014.15 1014.11 1014.08 1014.15 1014.32 1014.59 1014.91 1015.22 1015.48 1015.64 1015.71 1015.71 1015.68 1015.67 1015.72 1015.85 1016.04 1016.26 1016.46
1010.00 1010.34 1010.69 1010.94 1011.03 1010.93 1010.65 1010.25 1009.80 1009.40 1009.13 1009.02 1009.06 1009.21 1009.38 1009.51 1009.56 1009.53 1009.45 1009.41 1009.49 1009.75 1010.23 1010.91 1011.71 1012.53 1013.28 1013.86 1014.24 1014.42 1014.45 1014.41 1014.38 1014.43 1014.58 1014.81 1015.10 1015.37 1015.58 1015.70 1015.73 1015.71 1015.69 1015.70 1015.79 1015.95 1016.16 1016.39 1016.59
1010.20 1010.57 1010.90 1011.11 1011.13 1010.96 1010.60 1010.12 1009.62 1009.17 1008.87 1008.75 1008.78 1008.93 1009.12 1009.28 1009.37 1009.38 1009.35 1009.36 1009.49 1009.79 1010.30 1011.00 1011.81 1012.65 1013.40 1013.99 1014.38 1014.59 1014.64 1014.63 1014.63 1014.68 1014.83 1015.04 1015.28 1015.50 1015.66 1015.73 1015.74 1015.71 1015.69 1015.73 1015.84 1016.04 1016.28 1016.51 1016.68
1010.38 1010.74 1011.04 1011.20 1011.17 1010.93 1010.52 1010.00 1009.47 1009.02 1008.73 1008.61 1008.66 1008.83 1009.05 1009.24 1009.36 1009.41 1009.42 1009.45 1009.60 1009.91 1010.41 1011.08 1011.87 1012.67 1013.40 1013.98 1014.38 1014.60 1014.69 1014.72 1014.76 1014.84 1014.99 1015.19 1015.40 1015.58 1015.69 1015.73 1015.71 1015.67 1015.66 1015.73 1015.88 1016.10 1016.35 1016.58 1016.73
1010.48 1010.83 1011.08 1011.19 1011.11 1010.83 1010.39 1009.86 1009.34 1008.91 1008.65 1008.57 1008.66 1008.87 1009.12 1009.34 1009.49 1009.56 1009.59 1009.64 1009.78 1010.07 1010.53 1011.15 1011.87 1012.61 1013.29 1013.83 1014.22 1014.45 1014.58 1014.65 1014.73 1014.85 1015.03 1015.23 1015.42 1015.57 1015.64 1015.65 1015.61 1015.57 1015.57 1015.66 1015.84 1016.08 1016.34 1016.56 1016.68
1010.53 1010.83 1011.03 1011.07 1010.94 1010.62 1010.17 1009.66 1009.17 1008.80 1008.59 1008.57 1008.71 1008.96 1009.24 1009.49 1009.67 1009.76 1009.80 1009.86 1009.99 1010.24 1010.65 1011.20 1011.84 1012.49 1013.09 1013.58 1013.94 1014.17 1014.32 1014.43 1014.55 1014.71 1014.90 1015.11 1015.29 1015.42 1015.47 1015.45 1015.40 1015.36 1015.38 1015.49 1015.68 1015.94 1016.21 1016.41 1016.51
1010.53 1010.76 1010.88 1010.86 1010.67 1010.33 1009.88 1009.39 1008.95 1008.63 1008.49 1008.53 1008.72 1009.01 1009.33 1009.62 1009.82 1009.93 1009.99 1010.05 1010.17 1010.39 1010.75 1011.22 1011.77 1012.34 1012.85 1013.28 1013.59 1013.80 1013.95 1014.08 1014.22 1014.40 1014.61 1014.82 1015.00 1015.12 1015.16 1015.13 1015.07 1015.03 1015.06 1015.18 1015.38 1015.64 1015.91 1016.10 1016.18
1010.53 1010.67 1010.70 1010.60 1010.35 1009.97 1009.52 1009.05 1008.66 1008.40 1008.32 1008.42 1008.66 1008.99 1009.35 1009.66 1009.89 1010.03 1010.12 1010.19 1010.30 1010.51 1010.82 1011.23 1011.70 1012.18 1012.61 1012.96 1013.21 1013.39 1013.52 1013.64 1013.79 1013.98 1014.19 1014.40 1014.58 1014.69 1014.72 1014.69 1014.63 1014.60 1014.63 1014.75 1014.95 1015.20 1015.45 1015.63 1015.70
1010.55 1010.59 1010.52 1010.33 1010.01 1009.60 1009.13 1008.69 1008.33 1008.12 1008.09 1008.23 1008.51 1008.88 1009.26 1009.60 1009.86 1010.04 1010.15 1010.25 1010.37 1010.57 1010.85 1011.21 1011.62 1012.02 1012.38 1012.66 1012.85 1012.98 1013.08 1013.18 1013.31 1013.48 1013.69 1013.89 1014.06 1014.17 1014.21 1014.18 1014.13 1014.11 1014.14 1014.25 1014.43 1014.66 1014.89 1015.06 1015.12
1010.61 1010.56 1010.39 1010.10 1009.71 1009.26 1008.78 1008.35 1008.01 1007.84 1007.84 1008.01 1008.32 1008.70 1009.10 1009.46 1009.75 1009.95 1010.10 1010.22 1010.37 1010.57 1010.84 1011.17 1011.53 1011.87 1012.17 1012.38 1012.52 1012.60 1012.65 1012.71 1012.81 1012.96 1013.14 1013.34 1013.51 1013.62 1013.67 1013.67 1013.64 1013.62 1013.65 1013.75 1013.91 1014.11 1014.30 1014.44 1014.48
1010.72 1010.57 1010.31 1009.94 1009.50 1009.00 1008.52 1008.09 1007.77 1007.62 1007.63 1007.82 1008.13 1008.51 1008.92 1009.29 1009.59 1009.82 1009.99 1010.14 1010.30 1010.51 1010.78 1011.09 1011.42 1011.72 1011.97 1012.13 1012.22 1012.25 1012.25 1012.27 1012.33 1012.45 1012.61 1012.79 1012.96 1013.10 1013.18 1013.20 1013.21 1013.21 1013.25 1013.33 1013.46 1013.61 1013.76 1013.86 1013.88
1010.84 1010.62 1010.29 1009.87 1009.38 1008.86 1008.37 1007.95 1007.65 1007.50 1007.52 1007.70 1008.00 1008.37 1008.76 1009.12 1009.43 1009.66 1009.84 1010.01 1010.18 1010.40 1010.66 1010.96 1011.27 1011.54 1011.76 1011.89 1011.94 1011.93 1011.90 1011.88 1011.90 1011.98 1012.12 1012.29 1012.47 1012.63 1012.75 1012.83 1012.87 1012.91 1012.96 1013.03 1013.13 1013.23 1013.32 1013.37 1013.35
1010.97 1010.69 1010.32 1009.87 1009.36 1008.85 1008.37 1007.96 1007.67 1007.53 1007.55 1007.71 1007.98 1008.32 1008.67 1009.01 1009.29 1009.51 1009.69 1009.85 1010.02 1010.23 1010.49 1010.78 1011.07 1011.33 1011.54 1011.65 1011.68 1011.65 1011.59 1011.53 1011.52 1011.57 1011.69 1011.85 1012.05 1012.24 1012.40 1012.53 1012.63 1012.71 1012.77 1012.84 1012.91 1012.97 1013.00 1012.99 1012.91
1011.06 1010.76 1010.38 1009.93 1009.44 1008.96 1008.51 1008.13 1007.85 1007.71 1007.71 1007.83 1008.06 1008.35 1008.66 1008.94 1009.18 1009.38 1009.53 1009.67 1009.83 1010.03 1010.28 1010.56 1010.85 1011.11 1011.31 1011.42 1011.45 1011.42 1011.34 1011.26 1011.22 1011.25 1011.34 1011.50 1011.70 1011.91 1012.12 1012.30 1012.45 1012.56 1012.65 1012.72 1012.77 1012.78 1012.76 1012.68 1012.55
1011.12 1010.82 1010.45 1010.03 1009.60 1009.16 1008.76 1008.41 1008.15 1008.00 1007.97 1008.05 1008.22 1008.44 1008.69 1008.92 1009.11 1009.26 1009.38 1009.50 1009.64 1009.82 1010.06 1010.33 1010.62 1010.88 1011.09 1011.22 1011.27 1011.24 1011.16 1011.07 1011.01 1011.01 1011.08 1011.22 1011.41 1011.64 1011.87 1012.08 1012.26 1012.41 1012.51 1012.58 1012.61 1012.59 1012.52 1012.39 1012.20
1011.15 1010.87 1010.54 1010.18 1009.82 1009.45 1009.10 1008.78 1008.53 1008.36 1008.29 1008.30 1008.40 1008.55 1008.73 1008.89 1009.04 1009.15 1009.24 1009.34 1009.46 1009.63 1009.85 1010.12 1010.41 1010.68 1010.91 1011.07 1011.14 1011.12 1011.05 1010.96 1010.89 1010.86 1010.90 1011.01 1011.18 1011.39 1011.61 1011.83 1012.03 1012.18 1012.29 1012.35 1012.36 1012.31 1012.20 1012.03 1011.80
1011.17 1010.93 1010.66 1010.38 1010.09 1009.79 1009.49 1009.20 1008.94 1008.73 1008.60 1008.54 1008.55 1008.62 1008.73 1008.84 1008.94 1009.03 1009.10 1009.19 1009.30 1009.46 1009.68 1009.95 1010.24 1010.53 1010.78 1010.97 1011.06 1011.08 1011.03 1010.94 1010.85 1010.80 1010.80 1010.87 1011.00 1011.17 1011.36 1011.55 1011.72 1011.85 1011.94 1011.98 1011.97 1011.90 1011.76 1011.57 1011.32
1011.21 1011.02 1010.83 1010.64 1010.43 1010.19 1009.92 1009.63 1009.34 1009.08 1008.86 1008.72 1008.64 1008.63 1008.67 1008.74 1008.82 1008.90 1008.97 1009.06 1009.18 1009.34 1009.56 1009.83 1010.13 1010.43 1010.70 1010.90 1011.03 1011.07 1011.04 1010.97 1010.88 1010.81 1010.77 1010.79 1010.87 1010.98 1011.11 1011.24 1011.36 1011.44 1011.49 1011.49 1011.44 1011.34 1011.19 1010.99 1010.73
1011.30 1011.18 1011.08 1010.96 1010.82 1010.63 1010.38 1010.07 1009.73 1009.39 1009.08 1008.84 1008.67 1008.59 1008.58 1008.62 1008.69 1008.78 1008.87 1008.98 1009.11 1009.28 1009.50 1009.76 1010.06 1010.35 1010.63 1010.85 1011.00 1011.06 1011.06 1011.00 1010.92 1010.84 1010.79 1010.77 1010.79 1010.84 1010.90 1010.96 1011.00 1011.01 1010.98 1010.92 1010.83 1010.70 1010.53 1010.33 1010.09
1011.44 1011.41 1011.39 1011.36 1011.28 1011.11 1010.86 1010.51 1010.11 1009.68 1009.28 1008.94 1008.69 1008.55 1008.50 1008.53 1008.60 1008.71 1008.83 1008.96 1009.11 1009.28 1009.49 1009.73 1010.00 1010.28 1010.53 1010.75 1010.91 1011.00 1011.02 1010.99 1010.93 1010.87 1010.81 1010.78 1010.76 1010.76 1010.76 1010.74 1010.70 1010.62 1010.51 1010.38 1010.22 1010.05 1009.86 1009.65 1009.42
1011.64 1011.70 1011.76 1011.81 1011.77 1011.63 1011.36 1010.98 1010.51 1010.00 1009.51 1009.10 1008.79 1008.60 1008.53 1008.55 1008.64 1008.77 1008.91 1009.06 1009.20 1009.36 1009.53 1009.73 1009.95 1010.17 1010.39 1010.58 1010.73 1010.82 1010.87 1010.88 1010.86 1010.83 1010.80 1010.78 1010.76 1010.73 1010.69 1010.61 1010.50 1010.34 1010.15 1009.94 1009.71 1009.48 1009.25 1009.03 1008.81
1011.87 1012.01 1012.16 1012.26 1012.27 1012.15 1011.88 1011.47 1010.96 1010.40 1009.86 1009.40 1009.06 1008.84 1008.76 1008.79 1008.89 1009.03 1009.17 1009.31 1009.43 1009.54 1009.65 1009.77 1009.90 1010.05 1010.19 1010.33 1010.44 1010.53 1010.59 1010.63 1010.66 1010.68 1010.70 1010.72 1010.73 1010.72 1010.67 1010.57 1010.41 1010.19 1009.93 1009.64 1009.34 1009.04 1008.76 1008.51 1008.28
1012.09 1012.30 1012.52 1012.68 1012.74 1012.65 1012.40 1012.00 1011.49 1010.93 1010.39 1009.92 1009.58 1009.37 1009.29 1009.32 1009.42 1009.55 1009.67 1009.76 1009.82 1009.86 1009.87 1009.88 1009.90 1009.94 1009.99 1010.04 1010.10 1010.16 1010.21 1010.27 1010.34 1010.41 1010.49 1010.57 1010.64 1010.67 1010.65 1010.56 1010.39 1010.14 1009.83 1009.47 1009.10 1008.74 1008.40 1008.09 1007.83
1012.26 1012.53 1012.80 1013.02 1013.13 1013.09 1012.90 1012.55 1012.10 1011.60 1011.12 1010.70 1010.39 1010.21 1010.15 1010.18 1010.26 1010.35 1010.41 1010.44 1010.41 1010.33 1010.23 1010.12 1010.01 1009.92 1009.85 1009.80 1009.78 1009.78 1009.80 1009.85 1009.93 1010.04 1010.17 1010.31 1010.43 1010.52 1010.56 1010.50 1010.35 1010.11 1009.77 1009.38 1008.95 1008.52 1008.11 1007.74 1007.43
1012.35 1012.65 1012.96 1013.23 1013.40 1013.45 1013.35 1013.12 1012.79 1012.41 1012.04 1011.72 1011.49 1011.36 1011.32 1011.34 1011.38 1011.41 1011.39 1011.32 1011.18 1010.99 1010.76 1010.51 1010.28 1010.06 1009.87 1009.71 1009.59 1009.51 1009.46 1009.46 1009.51 1009.61 1009.75 1009.92 1010.09 1010.24 1010.33 1010.33 1010.22 1010.00 1009.68 1009.27 1008.81 1008.33 1007.85 1007.42 1007.04
1012.35 1012.65 1012.99 1013.31 1013.56 1013.71 1013.75 1013.68 1013.52 1013.31 1013.10 1012.92 1012.79 1012.73 1012.70 1012.70 1012.69 1012.64 1012.53 1012.35 1012.10 1011.79 1011.45 1011.09 1010.75 1010.42 1010.12 1009.85 1009.62 1009.43 1009.28 1009.19 1009.16 1009.20 1009.30 1009.45 1009.63 1009.79 1009.92 1009.97 1009.92 1009.75 1009.46 1009.07 1008.60 1008.08 1007.56 1007.06 1006.62
1012.27 1012.56 1012.91 1013.27 1013.61 1013.89 1014.09 1014.21 1014.25 1014.25 1014.22 1014.19 1014.17 1014.16 1014.15 1014.13 1014.06 1013.92 1013.71 1013.43 1013.08 1012.68 1012.26 1011.83 1011.41 1011.00 1010.62 1010.25 1009.91 1009.60 1009.32 1009.10 1008.94 1008.86 1008.86 1008.93 1009.06 1009.21 1009.35 1009.44 1009.43 1009.32 1009.08 1008.72 1008.27 1007.75 1007.21 1006.67 1006.18
1012.16 1012.42 1012.77 1013.18 1013.61 1014.01 1014.38 1014.69 1014.94 1015.13 1015.28 1015.39 1015.47 1015.51 1015.50 1015.43 1015.29 1015.07 1014.77 1014.41 1013.99 1013.55 1013.09 1012.63 1012.18 1011.74 1011.31 1010.88 1010.44 1010.00 1009.59 1009.20 1008.88 1008.63 1008.48 1008.42 1008.46 1008.55 1008.66 1008.76 1008.79 1008.73 1008.55 1008.25 1007.84 1007.35 1006.82 1006.27 1005.75
1012.06 1012.31 1012.67 1013.12 1013.62 1014.15 1014.66 1015.13 1015.55 1015.91 1016.19 1016.40 1016.54 1016.59 1016.56 1016.44 1016.23 1015.93 1015.56 1015.15 1014.70 1014.25 1013.80 1013.36 1012.94 1012.51 1012.07 1011.60 1011.09 1010.55 1010.00 1009.45 1008.95 1008.51 1008.18 1007.97 1007.87 1007.87 1007.93 1008.00 1008.06 1008.04 1007.93 1007.70 1007.36 1006.93 1006.43 1005.91 1005.40
1012.07 1012.31 1012.68 1013.17 1013.73 1014.34 1014.96 1015.54 1016.07 1016.52 1016.88 1017.13 1017.27 1017.30 1017.22 1017.03 1016.74 1016.38 1015.97 1015.53 1015.09 1014.66 1014.26 1013.88 1013.51 1013.13 1012.71 1012.24 1011.69 1011.08 1010.42 1009.73 1009.07 1008.47 1007.96 1007.59 1007.35 1007.24 1007.23 1007.28 1007.33 1007.36 1007.30 1007.15 1006.90 1006.54 1006.11 1005.64 1005.17
Thickness
5843 5849 5853 5847 5842 5846 5834 5841 5849 5851 5853 5860 5861 5856 5850 5845 5839 5830 5849 5859 5854 5848 5838 5825 5820 5816 5814 5812 5809 5806 5803 5800 5797 5793 5790 5787 5785 5783 5780 5777 5775 5773 5772 5770 5769 5767 5765 5762 5760
5849 5850 5847 5845 5843 5833 5828 5843 5846 5849 5856 5863 5861 5856 5852 5847 5850 5847 5850 5853 5852 5846 5838 5828 5819 5815 5812 5809 5806 5803 5800 5797 5794 5792 5789 5786 5783 5781 5779 5777 5775 5772 5770 5768 5766 5765 5762 5760 5758
5848 5849 5844 5847 5845 5836 5833 5847 5849 5856 5862 5861 5856 5857 5851 5844 5846 5849 5853 5853 5850 5844 5836 5826 5817 5814 5810 5807 5804 5801 5797 5794 5792 5789 5787 5785 5782 5780 5778 5776 5775 5772 5770 5767 5765 5762 5760 5758 5755
5846 5844 5846 5844 5842 5845 5846 5852 5855 5854 5861 5862 5858 5849 5848 5847 5850 5853 5852 5851 5847 5840 5834 5825 5817 5812 5809 5806 5802 5799 5796 5792 5789 5786 5784 5783 5781 5779 5777 5775 5774 5771 5769 5766 5764 5761 5759 5756 5753
5845 5844 5841 5840 5842 5849 5855 5857 5858 5854 5856 5858 5857 5845 5838 5844 5851 5851 5848 5848 5843 5839 5834 5823 5814 5811 5807 5804 5801 5797 5794 5790 5787 5784 5782 5780 5779 5777 5775 5773 5772 5770 5767 5765 5763 5760 5758 5756 5754
5840 5844 5836 5837 5840 5849 5859 5864 5862 5856 5856 5856 5855 5847 5836 5843 5845 5845 5846 5844 5843 5838 5834 5822 5811 5808 5805 5801 5798 5796 5792 5789 5786 5783 5780 5778 5777 5776 5774 5772 5770 5768 5766 5763 5762 5760 5758 5756 5755
5834 5836 5834 5837 5838 5844 5856 5868 5864 5859 5855 5856 5859 5847 5839 5842 5844 5846 5844 5843 5841 5838 5835 5823 5815 5808 5803 5799 5796 5793 5791 5787 5785 5782 5780 5778 5776 5774 5772 5770 5768 5766 5765 5763 5761 5760 5759 5757 5756
5842 5837 5835 5838 5836 5840 5859 5866 5866 5861 5859 5865 5863 5849 5840 5841 5844 5843 5840 5837 5836 5834 5832 5822 5819 5813 5807 5801 5796 5793 5790 5787 5785 5782 5780 5778 5776 5774 5772 5770 5768 5765 5763 5762 5761 5760 5759 5758 5757
5838 5828 5830 5835 5833 5840 5858 5860 5864 5867 5863 5862 5861 5856 5852 5848 5843 5836 5831 5828 5825 5825 5826 5823 5820 5812 5808 5805 5800 5793 5790 5787 5784 5782 5780 5777 5779 5780 5776 5772 5769 5765 5763 5761 5760 5759 5759 5758 5758
5829 5824 5834 5838 5841 5843 5852 5854 5860 5859 5855 5854 5849 5848 5848 5843 5838 5832 5827 5823 5821 5819 5820 5819 5818 5811 5807 5804 5800 5794 5791 5790 5786 5787 5784 5780 5780 5779 5778 5774 5768 5764 5761 5760 5758 5757 5756 5756 5758
5823 5823 5831 5838 5845 5846 5848 5856 5863 5855 5849 5855 5852 5843 5842 5839 5835 5832 5829 5827 5825 5821 5817 5815 5812 5808 5804 5801 5797 5795 5792 5790 5787 5785 5782 5779 5777 5774 5773 5771 5768 5764 5761 5759 5758 5755 5754 5756 5756
5816 5822 5826 5831 5842 5841 5842 5852 5857 5857 5858 5859 5860 5852 5843 5837 5834 5831 5828 5827 5824 5819 5814 5813 5807 5801 5796 5795 5792 5788 5787 5786 5784 5781 5777 5775 5772 5770 5769 5766 5764 5762 5760 5756 5754 5752 5752 5750 5750
5811 5817 5826 5834 5838 5841 5842 5846 5850 5857 5863 5860 5855 5847 5841 5837 5834 5831 5827 5823 5819 5813 5810 5808 5802 5794 5789 5784 5782 5782 5781 5782 5780 5775 5773 5769 5767 5765 5762 5760 5757 5755 5753 5749 5745 5744 5743 5744 5745
5809 5815 5822 5830 5833 5836 5834 5842 5846 5851 5855 5849 5845 5840 5839 5835 5833 5826 5819 5815 5812 5808 5805 5802 5795 5789 5782 5778 5776 5776 5776 5774 5774 5771 5769 5765 5760 5758 5756 5755 5751 5749 5745 5741 5738 5736 5733 5736 5740
5807 5806 5817 5826 5828 5831 5830 5827 5837 5847 5846 5839 5836 5835 5833 5831 5827 5821 5817 5813 5810 5804 5800 5794 5789 5784 5778 5774 5773 5773 5772 5771 5769 5766 5763 5760 5756 5754 5751 5749 5746 5744 5741 5737 5734 5731 5728 5732 5737
5800 5799 5800 5816 5820 5822 5817 5812 5833 5839 5835 5828 5827 5825 5823 5821 5821 5819 5816 5812 5808 5802 5794 5788 5785 5778 5773 5769 5766 5765 5764 5763 5761 5759 5756 5754 5750 5748 5745 5743 5741 5738 5736 5734 5730 5728 5727 5729 5733
5786 5788 5792 5800 5813 5815 5811 5811 5818 5830 5827 5819 5816 5815 5814 5812 5814 5813 5811 5807 5803 5797 5790 5781 5775 5769 5766 5763 5761 5760 5758 5757 5756 5754 5751 5748 5746 5744 5742 5740 5737 5736 5735 5733 5731 5729 5725 5726 5729
5775 5783 5783 5786 5799 5808 5804 5803 5807 5816 5816 5810 5808 5809 5807 5807 5807 5808 5806 5804 5798 5792 5784 5776 5769 5765 5762 5760 5757 5755 5753 5752 5751 5749 5747 5744 5743 5741 5739 5738 5735 5733 5732 5731 5729 5726 5724 5724 5726
5775 5775 5777 5781 5792 5796 5791 5791 5795 5800 5803 5800 5800 5801 5802 5804 5805 5804 5801 5797 5791 5784 5776 5769 5764 5759 5756 5753 5750 5748 5748 5748 5748 5746 5742 5740 5738 5736 5733 5732 5730 5727 5726 5724 5723 5723 5723 5723 5726
5771 5770 5773 5779 5785 5784 5781 5784 5792 5792 5795 5798 5798 5797 5798 5798 5795 5793 5791 5788 5783 5775 5768 5762 5757 5755 5752 5749 5745 5743 5742 5744 5743 5741 5738 5736 5733 5730 5730 5725 5724 5723 5719 5717 5717 5715 5716 5721 5723
5770 5767 5768 5767 5776 5783 5776 5775 5781 5788 5792 5793 5796 5798 5797 5792 5787 5783 5780 5777 5773 5766 5762 5759 5754 5750 5747 5745 5743 5739 5736 5736 5738 5736 5735 5733 5729 5725 5722 5720 5719 5717 5716 5716 5713 5711 5709 5712 5718
5762 5773 5766 5762 5758 5762 5768 5750 5778 5786 5781 5783 5786 5787 5786 5781 5776 5773 5769 5766 5763 5761 5759 5753 5748 5744 5742 5739 5736 5734 5729 5729 5731 5730 5731 5727 5724 5721 5718 5716 5714 5713 5713 5711 5708 5707 5705 5704 5708
5762 5767 5762 5758 5754 5750 5758 5746 5765 5774 5764 5773 5778 5777 5775 5768 5763 5759 5758 5757 5756 5754 5752 5748 5743 5738 5736 5734 5731 5727 5727 5728 5729 5726 5723 5720 5721 5716 5713 5711 5709 5708 5709 5707 5703 5700 5699 5700 5701
5767 5762 5761 5758 5757 5740 5742 5739 5747 5755 5748 5757 5765 5765 5760 5754 5749 5745 5746 5746 5744 5743 5741 5740 5735 5732 5731 5729 5727 5723 5722 5720 5720 5718 5717 5716 5717 5714 5711 5707 5704 5703 5703 5701 5698 5697 5696 5696 5697
5763 5749 5738 5737 5739 5739 5745 5739 5734 5731 5736 5738 5737 5738 5736 5730 5724 5721 5723 5726 5727 5728 5729 5730 5729 5726 5726 5725 5723 5721 5719 5716 5713 5713 5713 5710 5712 5711 5706 5702 5698 5697 5696 5695 5694 5694 5694 5694 5693
5754 5746 5728 5718 5725 5738 5745 5736 5725 5723 5722 5722 5720 5716 5713 5711 5708 5704 5704 5705 5707 5709 5711 5715 5717 5718 5719 5719 5719 5718 5716 5714 5714 5710 5708 5707 5705 5704 5699 5695 5692 5691 5691 5691 5691 5691 5691 5691 5690
5748 5750 5755 5737 5734 5723 5738 5740 5725 5717 5709 5706 5703 5701 5698 5697 5696 5694 5693 5693 5693 5693 5694 5696 5698 5702 5707 5710 5710 5710 5709 5707 5707 5704 5702 5702 5699 5696 5692 5689 5688 5687 5687 5687 5686 5686 5685 5686 5687
5752 5749 5741 5732 5714 5713 5727 5730 5727 5702 5695 5691 5687 5685 5685 5686 5685 5683 5682 5680 5680 5681 5681 5682 5681 5682 5687 5692 5695 5699 5699 5698 5698 5698 5698 5695 5692 5689 5685 5682 5682 5682 5682 5682 5681 5681 5682 5683 5685
5744 5741 5736 5735 5725 5707 5706 5719 5695 5687 5682 5680 5677 5674 5672 5672 5671 5669 5668 5666 5665 5665 5665 5665 5665 5665 5667 5668 5671 5676 5681 5686 5689 5689 5689 5687 5685 5682 5679 5677 5676 5676 5677 5677 5676 5678 5679 5679 5679
5746 5739 5732 5715 5711 5714 5707 5704 5687 5678 5671 5665 5663 5662 5662 5660 5659 5657 5655 5652 5650 5648 5647 5647 5646 5646 5647 5648 5650 5655 5660 5667 5673 5677 5678 5677 5675 5673 5673 5673 5672 5672 5672 5671 5671 5673 5673 5672 5671